Regional Weather Roundup
Issued by NWS Sioux Falls, SD

Home | Current Version | Previous Version | Graphics & Text | Print | Product List | Glossary Off
Versions: 1 2 3 4 5 6 7 8 9 10 11 12 13 14 15 16 17 18 19 20 21 22 23 24 25 26 27 28 29 30 31 32 33 34 35 36 37 38 39 40 41 42 43 44 45 46 47 48 49 50

000
ASUS43 KFSD 270002
RWRFSD

WEATHER ROUNDUP FOR SE SOUTH DAKOTA/SW MINNESOTA/NW IOWA
NATIONAL WEATHER SERVICE SIOUX FALLS SD
700 PM CDT FRI AUG 26 2016

NOTE: "FAIR" INDICATES FEW OR NO CLOUDS BELOW 12,000 FEET WITH NO
SIGNIFICANT WEATHER AND OR OBSTRUCTIONS TO VISIBILITY.


SDZ038>040-050-052>070-270100-
SOUTHEAST SOUTH DAKOTA

CITY           SKY/WX    TMP DP  RH WIND       PRES   REMARKS
BROOKINGS      CLOUDY    68  55  63 SE7       30.09F
CHAMBERLAIN    CLOUDY    70  56  62 E5        30.04R
6HR MIN TEMP:  68; 6HR MAX TEMP:  71;

HURON          CLOUDY    67  55  65 E9        30.05F
6HR MIN TEMP:  66; 6HR MAX TEMP:  72; 6HR PCP: TRACE;

MADISON        FAIR      66  59  77 E7        30.10F
MITCHELL       PTSUNNY   69  57  65 E7        30.05F
6HR MIN TEMP:  69; 6HR MAX TEMP:  75;

SIOUX FALLS    CLOUDY    71  58  63 SE8       30.09F
6HR MIN TEMP:  71; 6HR MAX TEMP:  75;

WINNER         FAIR      67  58  72 E7        30.02S
YANKTON        PTSUNNY   72  57  60 NE8       30.05F
$$

MNZ071-072-080-081-089-090-097-098-270100-
SOUTHWEST MINNESOTA

CITY           SKY/WX    TMP DP  RH WIND       PRES   REMARKS
FAIRMONT       CLOUDY    67  61  81 E3        30.12F
JACKSON          N/A     66  55  68 E3        30.12F
LUVERNE        PTSUNNY   66  57  72 SE3       30.11F
MARSHALL       MOSUNNY   69  57  65 SE7       30.11F
6HR MIN TEMP:  68; 6HR MAX TEMP:  72;

MONTEVIDEO     CLOUDY    68  57  68 S5        30.13F
REDWOOD FALLS  CLOUDY    68  57  68 SE5       30.12F
TRACY          CLOUDY    69  60  73 SE3       30.12F
WINDOM         CLOUDY    66  57  72 SE3       30.12F
WORTHINGTON    CLOUDY    66  59  78 E7        30.12F
$$

IAZ001>003-012>014-020>022-031-032-NEZ013-014-SDZ071-270100-
NORTHWEST IOWA

CITY           SKY/WX    TMP DP  RH WIND       PRES   REMARKS
CHEROKEE       PTSUNNY   68  62  81 E5        30.08F
DENISON        CLOUDY    64  61  88 E6        30.05F FOG
ESTHERVILLE    CLOUDY    65  60  84 SE5       30.11F
LE MARS        CLOUDY    70  61  73 E6        30.07F
ORANGE CITY    MOSUNNY   70  63  78 E5        30.09F
SHELDON        CLOUDY    68  63  83 VRB6      30.08F
SIOUX CITY     CLOUDY    72  62  71 E7        30.05F
6HR MIN TEMP:  71; 6HR MAX TEMP:  76;

SPENCER        MOSUNNY   67  60  78 E6        30.10F
6HR MIN TEMP:  67; 6HR MAX TEMP:  70;

STORM LAKE     CLOUDY    66  61  82 E6        30.09F
$$

ABBREVIATIONS USED IN REMARKS
   TC - TEMPERATURE IN CELSIUS
  WCI - WIND CHILL INDEX
   HX - HEAT INDEX
  VSB - VISIBILITY




USA.gov is the U.S. government's official web portal to all federal, state and local government web resources and services.